Regional Weather Roundup
Issued by NWS

Home | Current Version | Previous Version | Text Only | Print | Product List | Glossary Off
Versions: 1 2 3 4 5 6 7 8 9 10 11 12 13 14 15 16 17 18 19 20 21 22 23 24 25 26 27 28 29 30 31 32 33 34 35 36 37 38 39 40 41 42 43 44 45 46 47 48 49 50

000
ASUS43 KFSD 290610
RWRSD

WEATHER ROUNDUP FOR SOUTH DAKOTA
NATIONAL WEATHER SERVICE SIOUX FALLS SD
100 AM CDT WED MAR 29 2017

NOTE: "FAIR" INDICATES FEW OR NO CLOUDS BELOW 12,000 FEET WITH NO
SIGNIFICANT WEATHER AND/OR OBSTRUCTIONS TO VISIBILITY.


SDZ001>005-009-010-012>017-290700-
NORTHWEST AND NORTH CENTRAL SOUTH DAKOTA

CITY           SKY/WX    TMP DP  RH WIND       PRES   REMARKS
BUFFALO          N/A     42  40  92 SE8       30.06F
FAITH            N/A     43  43 100 MISG      30.14S
MOBRIDGE       CLOUDY    44  38  79 N3        30.13S
$$

SDZ012>016-024>037-041>051-057-063-072>074-290700-
SOUTHWEST AND SOUTH CENTRAL SOUTH DAKOTA

CITY           SKY/WX    TMP DP  RH WIND       PRES   REMARKS
RAPID CTY ARPT CLOUDY    42  40  92 S8        30.11F
PIERRE         CLOUDY    44  42  93 NW5       30.14F
CUSTER         FOG       36  34  92 S5        30.09F VSB 1/2
ELLSWORTH AFB  CLOUDY    42  42 100 SE9       30.11
PHILIP         CLOUDY    42  42 100 S3        30.14F
PINE RIDGE     LGT RAIN  42  41  96 CALM      30.12F
SPEARFISH      FAIR      34  32  93 CALM      30.11F
WINNER         CLOUDY    43  41  93 N3        30.14R
$$

SDZ004>011-016>023-039-040-290700-
NORTHEAST SOUTH DAKOTA

CITY           SKY/WX    TMP DP  RH WIND       PRES   REMARKS
ABERDEEN       CLOUDY    44  34  67 E7        30.16S
WATERTOWN      CLOUDY    45  36  70 NE5       30.15F
BROOKINGS      MOCLDY    44  35  70 E6        30.14F
SISSETON         N/A     38  35  89 NW3       30.17S
$$

SDZ017-020-022-023-036>040-048>070-290700-
SOUTHEAST SOUTH DAKOTA

CITY           SKY/WX    TMP DP  RH WIND       PRES   REMARKS
SIOUX FALLS    PTCLDY    43  37  79 NE3       30.14R
HURON          CLOUDY    44  39  82 E6        30.13F
CHAMBERLAIN    MOCLDY    46  43  89 NW5       30.14S
MITCHELL       CLOUDY    46  38  73 E5        30.14S
YANKTON        CLOUDY    48  39  71 CALM      30.11F
$$

ABBREVIATIONS USED IN REMARKS
   TC - TEMPERATURE IN CELSIUS
  WCI - WIND CHILL INDEX
   HX - HEAT INDEX
  VSB - VISIBILITY





USA.gov is the U.S. government's official web portal to all federal, state and local government web resources and services.